Temperature
25 25 24 25 25 25 25 25 24 25 26 25 24 24 23 23 23 23 22 22 21 21 20 20 20 19 19 18 18 18 17 17 17 17 16 16 16 16 16 15 15 15 15 15
25 24 25 26 26 25 25 24 25 25 26 25 24 24 24 24 23 23 22 22 21 21 20 20 20 19 19 18 18 18 17 17 17 16 16 16 16 16 15 15 15 15 15 15
24 25 26 26 25 25 25 25 25 24 25 25 24 23 24 24 23 23 22 22 21 21 20 19 19 19 18 18 18 17 17 17 17 16 16 16 16 15 15 15 15 15 15 15
25 26 26 25 25 25 24 26 25 25 24 23 24 22 23 23 23 22 22 22 21 21 20 19 19 19 18 18 18 17 17 17 16 16 16 16 16 15 15 15 15 15 14 14
25 25 25 25 25 25 25 26 25 25 24 23 24 23 23 24 22 22 22 22 21 21 20 19 19 19 18 18 17 17 17 16 16 16 16 16 15 15 15 15 15 14 14 14
25 26 26 25 26 26 26 25 25 25 24 22 24 24 22 23 23 22 22 22 21 20 20 19 19 18 18 17 17 17 17 16 16 16 16 16 15 15 15 15 14 14 14 14
24 25 26 26 25 25 25 23 22 22 21 22 24 24 23 24 24 23 23 22 21 20 20 19 18 18 18 17 17 17 17 16 16 16 16 15 15 15 15 15 14 14 14 14
23 23 24 25 24 24 24 24 21 21 22 22 24 23 23 24 24 23 23 22 21 20 20 19 18 18 18 17 17 17 16 16 16 16 16 15 15 15 15 14 14 14 14 14
23 23 25 25 25 25 24 24 24 23 23 22 23 23 23 23 23 23 22 22 21 20 20 19 18 18 17 17 17 16 16 16 15 15 15 15 15 15 14 14 14 14 14 14
23 22 24 25 24 24 24 24 23 22 21 21 22 23 22 22 22 22 22 21 21 20 20 19 18 18 17 17 17 16 16 16 15 15 15 15 15 14 14 14 14 14 14 13
23 22 23 23 23 23 23 23 23 22 22 21 21 21 23 22 22 22 21 21 20 20 19 18 18 17 17 17 16 16 16 15 15 15 15 14 14 14 14 14 14 13 13 13
22 22 21 22 23 24 23 23 22 21 21 22 21 21 23 22 22 22 21 21 20 19 19 18 18 17 17 16 16 16 15 15 15 15 14 14 14 14 14 13 13 13 13 13
21 21 20 21 22 22 22 23 22 22 21 21 20 20 22 22 22 21 20 20 19 19 18 18 17 17 16 16 16 15 15 15 15 14 14 14 14 14 13 13 13 13 13 13
20 20 20 20 20 21 21 22 22 22 20 20 21 21 21 21 21 20 20 19 19 18 18 17 16 16 16 16 15 15 15 15 14 14 14 14 14 13 13 13 13 13 12 12
20 20 20 21 21 21 21 21 21 21 21 20 21 21 21 21 20 20 19 19 18 18 17 17 16 16 16 15 15 15 15 14 14 14 14 14 14 13 13 13 13 12 12 12
20 20 20 20 21 21 21 21 21 21 21 21 21 21 21 21 20 20 19 18 18 17 17 17 16 16 15 15 15 15 15 14 14 14 13 13 13 13 13 12 12 12 12 12
19 19 19 19 20 20 19 20 21 21 21 21 20 20 20 20 20 19 18 18 17 17 16 16 16 16 15 15 15 15 14 14 14 13 13 13 13 13 12 12 12 12 11 11
19 19 18 18 19 18 19 21 21 21 21 21 20 20 19 19 19 18 17 17 16 16 16 15 15 15 15 15 15 14 14 14 14 13 13 12 12 12 12 12 12 11 11 11
19 18 18 18 17 18 19 20 20 20 19 20 20 19 19 18 18 17 17 16 16 15 15 15 15 15 15 15 14 14 14 13 13 13 13 12 12 12 12 12 11 11 11 11
19 18 18 17 17 17 18 19 20 19 18 19 19 19 18 18 16 16 16 15 15 15 15 14 14 14 14 14 14 14 13 13 13 12 12 12 12 12 11 11 11 11 11 10
17 17 17 17 17 17 18 18 19 17 17 18 18 18 17 17 16 16 15 15 14 14 14 14 14 14 14 14 13 13 13 13 12 12 12 12 12 11 11 11 11 10 10 10
16 16 16 16 16 16 17 18 17 17 17 17 17 17 16 16 15 15 14 14 14 14 13 13 13 13 13 13 13 13 12 12 12 12 12 11 11 11 11 11 10 10 10 10
17 16 16 16 16 17 17 17 16 16 16 16 16 16 15 15 15 14 14 14 13 13 13 13 13 13 13 13 12 12 12 12 12 11 11 11 11 11 11 10 10 10 10 9
17 17 16 16 16 16 16 16 16 15 15 15 15 15 14 14 14 13 13 13 13 13 12 12 12 12 12 12 12 12 12 11 11 11 11 11 10 10 10 10 10 9 9 9
15 16 15 15 16 16 15 15 15 15 14 14 14 14 14 14 13 13 13 12 12 12 12 12 12 12 12 12 11 11 11 11 11 11 10 10 10 10 10 9 9 9 9 9
15 15 15 14 15 15 15 15 14 14 14 14 13 13 13 13 13 12 12 12 12 12 12 11 12 11 11 11 11 11 11 11 10 10 10 10 10 9 9 9 9 9 9 9
Wind_Speed
9 8 7 7 9 7 6 7 6 4 5 6 6 6 7 8 8 7 6 6 7 7 6 5 5 5 6 6 5 5 4 4 4 2 2 2 2 1 2 2 3 3 4 5
8 9 9 8 6 7 9 9 6 3 3 4 6 6 6 8 8 7 7 7 8 7 6 5 5 5 4 5 5 5 4 4 4 3 2 2 2 1 2 2 3 3 3 4
10 6 8 9 8 9 10 8 5 3 4 7 6 7 8 8 7 7 5 5 6 7 8 7 6 6 5 4 4 5 4 4 4 4 2 2 2 2 2 2 1 2 3 4
9 8 8 9 9 9 8 6 5 5 6 6 8 6 6 8 8 7 6 5 6 5 5 6 6 5 5 4 3 3 3 4 4 4 3 3 2 1 1 2 1 1 2 3
7 8 9 9 9 8 7 5 7 9 9 9 10 7 4 7 8 8 8 7 6 5 5 5 5 4 4 4 4 3 3 3 4 4 4 3 2 2 1 2 2 1 1 2
9 8 8 8 8 9 7 8 9 9 8 10 11 8 3 5 7 9 9 8 7 6 5 5 5 5 4 3 4 4 4 3 3 4 4 4 4 3 2 2 2 1 1 1
10 10 8 6 7 7 8 6 4 5 6 7 6 5 3 5 5 7 8 9 7 6 6 5 5 5 4 3 3 4 4 4 4 4 4 4 5 4 4 3 2 1 1 1
9 9 9 7 8 7 9 9 6 4 4 3 4 4 5 7 6 7 7 8 7 7 6 6 6 5 5 4 3 3 4 4 4 4 4 4 4 3 2 2 2 2 1 1
6 5 5 6 7 8 7 8 9 8 9 6 4 4 6 7 7 6 6 7 5 5 6 6 6 6 5 4 4 4 4 4 3 4 4 3 3 3 2 2 2 2 1 1
7 7 6 5 6 9 8 7 5 5 5 5 4 4 5 8 7 6 5 5 5 4 5 5 5 5 5 4 4 4 4 4 3 3 3 3 3 3 2 2 1 1 2 1
8 6 5 6 8 8 7 7 6 5 6 4 3 1 2 5 6 6 5 4 5 4 4 4 5 4 4 4 4 3 4 4 3 3 2 3 3 2 2 2 1 1 1 1
5 6 7 8 6 5 6 7 7 5 5 6 4 0 5 5 4 5 4 4 4 4 4 4 5 4 4 3 3 3 3 4 3 3 3 3 3 2 2 1 1 1 1 1
4 5 6 5 5 5 6 7 7 7 6 6 5 2 4 4 4 4 4 4 4 4 5 5 4 3 3 3 3 2 2 3 4 3 3 4 4 3 2 2 1 1 1 1
3 7 8 7 4 4 7 8 7 7 6 7 6 3 2 1 2 3 4 3 4 4 4 4 4 3 3 2 2 2 2 2 3 3 3 3 4 3 3 3 2 2 1 1
4 8 10 9 8 8 8 9 9 9 9 9 7 6 2 1 1 2 3 3 3 4 4 4 4 3 3 2 2 2 3 2 2 3 3 3 3 3 2 2 2 2 2 1
6 8 9 10 10 8 9 9 10 10 9 10 9 7 3 1 2 2 2 3 3 3 2 3 3 3 3 3 2 2 3 3 3 3 2 3 3 2 2 2 2 2 2 1
6 8 8 10 10 9 9 8 8 8 7 7 7 4 2 1 1 1 1 2 1 1 1 1 1 2 3 3 3 3 3 3 3 3 2 3 3 3 2 2 2 2 2 1
8 9 6 7 9 10 4 2 4 7 6 4 3 1 2 1 1 2 2 1 2 2 1 0 1 0 1 2 2 3 3 3 3 3 3 3 3 3 2 2 2 2 2 2
7 7 6 6 7 8 4 2 3 4 5 3 2 1 1 2 1 2 3 2 2 1 1 1 0 0 1 1 2 3 3 3 3 3 3 3 3 3 3 3 2 2 2 2
6 7 7 6 6 6 1 3 4 3 3 4 3 1 1 1 1 0 2 3 2 2 1 1 1 1 0 1 2 3 2 2 3 2 2 2 3 3 3 3 2 2 2 3
5 6 7 8 8 4 2 3 3 2 2 5 4 4 3 2 2 1 2 2 2 2 2 1 1 1 1 1 2 2 2 2 2 2 2 1 2 3 3 3 2 2 2 3
5 4 5 6 7 4 2 2 1 3 5 5 5 5 4 3 3 2 2 1 1 1 1 1 0 0 1 1 2 1 2 1 2 2 2 2 2 2 2 2 3 3 3 3
4 3 3 3 2 2 3 3 4 5 5 5 4 4 4 3 2 2 1 0 0 1 1 1 1 1 1 1 2 1 1 2 3 2 2 3 3 2 3 3 3 2 3 3
4 4 4 4 2 2 3 3 3 4 5 6 5 4 3 2 3 2 2 1 1 1 1 1 1 1 2 2 2 1 1 2 3 3 3 3 2 2 2 2 2 2 3 3
5 4 6 7 4 3 2 2 3 3 4 5 4 4 4 3 3 2 2 2 2 1 1 1 2 2 3 2 2 2 2 2 3 3 3 3 2 3 3 2 1 2 3 4
6 7 7 6 5 4 4 3 3 3 4 4 4 4 4 3 3 3 3 3 2 1 2 2 2 2 3 2 2 2 2 3 3 3 3 2 2 2 2 2 1 1 2 4
Wind_Direction
211 222 226 225 225 245 268 255 232 214 174 196 207 203 194 193 188 183 180 177 178 171 164 152 150 141 143 148 139 131 135 132 121 105 94 93 88 73 73 81 79 72 64 70
215 229 235 243 242 245 249 255 249 214 189 224 219 222 204 196 189 184 187 183 176 166 160 156 146 138 151 147 141 143 136 130 125 124 126 122 109 97 85 60 52 51 66 76
224 225 228 237 237 245 250 251 244 232 219 236 237 239 222 193 185 176 182 177 166 166 164 161 158 151 152 148 154 153 150 146 140 132 119 99 89 87 81 77 51 29 60 77
232 236 241 242 240 243 251 258 258 249 245 247 231 245 218 184 177 170 175 180 168 165 156 150 157 153 152 152 150 152 159 149 139 134 133 138 136 135 128 129 142 91 69 78
239 232 238 242 247 248 257 262 257 252 252 259 250 252 217 177 178 178 175 173 167 165 153 148 150 147 141 143 153 172 169 148 144 149 149 157 149 141 129 119 121 110 92 90
248 246 242 249 252 249 258 259 255 246 250 253 244 239 212 184 180 174 166 160 166 163 154 151 146 140 141 134 161 172 171 155 146 159 163 164 155 155 140 128 123 133 129 105
236 233 231 237 245 233 242 253 250 230 223 240 233 225 182 138 137 152 154 157 158 152 155 148 143 149 148 152 159 172 165 162 163 175 176 174 165 173 166 166 165 164 132 108
240 228 213 220 235 237 232 233 235 250 252 259 240 213 130 120 112 117 126 134 140 148 152 148 156 156 154 159 161 162 173 174 172 183 190 170 158 163 168 172 147 161 162 172
275 244 201 218 236 247 242 243 256 271 281 274 226 166 138 128 123 123 126 128 137 148 147 148 153 152 154 161 167 177 173 168 172 190 178 165 156 144 146 161 141 145 154 176
289 283 243 208 227 236 251 258 263 257 273 273 255 215 165 158 147 131 134 137 136 135 129 130 132 140 153 156 162 169 168 170 169 182 174 163 151 149 151 161 160 159 163 150
287 276 248 212 215 234 235 242 248 260 260 270 268 282 105 141 142 144 145 132 129 127 127 128 130 138 137 140 146 154 167 166 165 167 159 152 141 148 151 166 165 143 115 123
271 277 259 240 228 239 242 247 251 253 271 278 277 163 89 105 112 120 124 133 131 129 125 121 130 133 132 143 154 158 176 168 159 165 162 158 153 145 140 140 133 117 108 132
305 273 266 236 204 211 240 244 253 261 266 269 265 181 115 101 106 107 110 118 128 129 128 123 122 128 135 145 148 156 171 163 156 161 165 161 154 153 162 155 137 126 132 99
297 263 263 261 279 280 259 264 259 257 258 265 264 247 208 95 98 107 115 123 131 135 130 128 130 133 133 142 155 155 146 139 153 159 169 167 162 157 161 157 152 142 140 118
251 263 268 271 277 277 273 265 260 257 261 267 274 272 249 171 135 132 123 123 129 140 147 148 150 149 147 151 173 163 154 153 158 163 166 154 137 128 134 143 143 131 126 131
251 264 271 271 266 271 272 260 257 251 256 262 270 278 319 129 126 126 132 137 147 157 161 164 165 162 171 180 191 168 161 165 162 161 157 137 132 128 132 139 133 125 125 142
253 261 268 269 267 274 261 258 256 256 252 257 266 281 355 351 95 88 81 131 114 124 113 119 190 190 196 194 191 176 175 161 162 163 155 143 142 147 151 143 130 139 154 156
250 256 260 269 269 255 258 290 275 263 262 281 292 349 347 341 43 75 60 71 75 40 34 34 301 255 213 191 171 158 153 151 160 157 151 139 145 151 145 135 144 170 165 173
249 252 251 253 261 265 259 304 312 279 276 326 311 334 53 58 58 87 62 47 41 14 338 350 322 307 243 192 161 145 153 163 161 159 157 154 156 160 155 160 176 189 179 184
237 244 245 251 260 264 322 18 342 299 266 3 358 19 73 84 276 311 59 46 44 28 17 9 341 327 199 124 118 135 160 164 165 164 164 162 164 163 169 179 186 198 191 192
232 239 242 251 256 264 3 11 351 258 353 12 19 21 11 340 349 25 69 49 38 28 11 3 344 350 105 119 121 153 175 182 171 148 147 163 170 170 175 180 188 196 203 199
247 250 248 250 252 253 51 40 357 1 18 19 15 12 11 15 29 32 39 46 25 18 6 332 320 54 104 131 140 167 199 173 133 135 163 177 185 187 174 176 202 203 202 203
240 249 271 260 265 25 33 25 12 12 359 2 4 5 5 360 1 355 343 336 345 323 291 275 221 214 178 166 160 198 209 164 154 166 198 195 191 184 174 179 197 205 203 207
274 286 281 282 279 324 353 1 11 9 353 349 359 3 358 344 324 334 327 318 287 271 266 256 217 226 225 191 179 206 211 190 178 185 200 199 188 175 178 185 194 200 204 211
302 302 284 276 284 303 312 342 348 346 337 336 345 349 336 313 308 315 308 298 278 269 268 263 245 241 239 201 191 207 213 215 206 196 196 198 194 183 187 189 208 214 208 200
272 273 269 271 289 294 299 314 318 323 324 326 332 334 327 320 307 301 294 293 295 287 276 259 253 244 244 224 218 210 206 212 211 215 203 196 191 187 181 174 205 323 224 203
Height
1476 1478 1480 1477 1476 1478 1479 1481 1483 1480 1477 1481 1485 1488 1488 1489 1491 1493 1495 1497 1500 1502 1505 1507 1509 1511 1513 1515 1516 1517 1518 1519 1519 1520 1521 1522 1523 1523 1524 1524 1524 1525 1525 1524
1475 1478 1473 1472 1472 1475 1478 1481 1481 1478 1475 1479 1483 1484 1483 1485 1487 1490 1492 1495 1497 1500 1503 1505 1507 1509 1511 1513 1514 1516 1517 1518 1518 1519 1520 1521 1522 1523 1523 1524 1524 1524 1524 1524
1474 1472 1469 1471 1474 1476 1476 1478 1479 1480 1478 1478 1483 1487 1483 1481 1484 1488 1491 1493 1495 1498 1500 1503 1505 1507 1509 1511 1513 1514 1515 1517 1518 1518 1520 1521 1521 1522 1522 1523 1523 1524 1524 1524
1469 1468 1469 1470 1472 1474 1478 1471 1473 1477 1484 1487 1482 1495 1482 1478 1482 1485 1489 1491 1494 1496 1499 1501 1503 1505 1507 1509 1511 1513 1514 1515 1516 1517 1518 1519 1520 1520 1521 1522 1523 1523 1523 1523
1468 1466 1468 1471 1470 1470 1471 1469 1471 1474 1480 1483 1479 1486 1483 1475 1481 1483 1485 1489 1491 1494 1497 1499 1501 1503 1505 1507 1509 1511 1512 1513 1514 1515 1517 1518 1519 1520 1521 1521 1522 1522 1522 1522
1465 1464 1465 1467 1467 1467 1467 1470 1470 1471 1478 1491 1478 1482 1486 1476 1476 1478 1482 1486 1490 1492 1495 1497 1499 1501 1503 1505 1507 1508 1510 1511 1512 1513 1515 1516 1517 1518 1519 1520 1520 1521 1521 1521
1467 1464 1463 1464 1468 1467 1469 1478 1490 1492 1494 1488 1470 1476 1480 1470 1470 1474 1478 1483 1487 1490 1493 1496 1497 1499 1502 1503 1504 1506 1507 1508 1510 1511 1513 1514 1515 1516 1517 1518 1519 1519 1519 1520
1472 1471 1463 1463 1467 1470 1470 1475 1493 1500 1493 1484 1473 1477 1474 1467 1469 1473 1477 1481 1485 1488 1491 1493 1496 1497 1500 1501 1502 1503 1505 1506 1507 1509 1511 1512 1513 1514 1515 1516 1517 1517 1518 1518
1470 1469 1460 1461 1463 1465 1470 1471 1469 1478 1479 1484 1477 1472 1472 1468 1471 1474 1477 1480 1484 1487 1489 1491 1493 1495 1497 1499 1500 1501 1503 1504 1505 1507 1509 1510 1511 1512 1514 1515 1515 1516 1516 1517
1467 1471 1462 1460 1462 1463 1465 1467 1472 1479 1489 1491 1481 1475 1477 1474 1473 1475 1477 1480 1483 1486 1488 1490 1492 1494 1496 1497 1498 1499 1500 1502 1503 1505 1506 1508 1509 1510 1511 1512 1513 1514 1514 1515
1468 1472 1468 1464 1467 1468 1468 1469 1471 1474 1476 1486 1492 1486 1466 1469 1470 1474 1476 1479 1482 1485 1487 1489 1491 1493 1494 1496 1497 1498 1499 1500 1501 1502 1504 1505 1507 1508 1509 1510 1511 1512 1512 1513
1468 1471 1472 1466 1460 1460 1464 1468 1471 1482 1481 1476 1483 1486 1465 1468 1470 1472 1476 1478 1481 1484 1486 1488 1489 1491 1493 1494 1495 1496 1497 1498 1499 1500 1502 1503 1504 1506 1507 1508 1509 1510 1510 1511
1471 1474 1478 1475 1471 1466 1466 1465 1467 1470 1475 1478 1484 1485 1467 1468 1470 1472 1475 1478 1480 1483 1485 1487 1489 1490 1491 1492 1493 1494 1495 1496 1497 1498 1500 1501 1502 1503 1504 1505 1506 1507 1508 1509
1473 1474 1477 1482 1475 1470 1470 1468 1466 1470 1478 1478 1477 1476 1471 1470 1471 1472 1475 1477 1480 1482 1484 1486 1487 1489 1490 1491 1492 1493 1493 1494 1495 1496 1497 1499 1500 1501 1502 1503 1504 1505 1505 1506
1472 1475 1470 1468 1466 1466 1467 1468 1467 1469 1470 1475 1472 1470 1469 1469 1471 1472 1474 1476 1478 1480 1482 1484 1486 1487 1488 1489 1490 1491 1492 1493 1494 1495 1495 1497 1498 1499 1500 1501 1501 1502 1503 1504
1471 1473 1470 1470 1465 1464 1466 1464 1464 1465 1465 1467 1467 1468 1465 1467 1469 1472 1473 1476 1477 1479 1481 1482 1484 1485 1486 1488 1489 1489 1490 1491 1492 1493 1494 1495 1496 1496 1497 1498 1499 1499 1500 1501
1470 1472 1474 1473 1464 1464 1470 1463 1462 1462 1461 1464 1468 1468 1465 1467 1469 1471 1473 1474 1476 1478 1479 1481 1482 1483 1484 1485 1486 1487 1488 1489 1490 1491 1492 1492 1493 1494 1495 1496 1496 1497 1498 1499
1469 1471 1473 1473 1471 1479 1467 1457 1457 1459 1460 1461 1462 1464 1465 1468 1469 1471 1473 1474 1475 1477 1478 1479 1480 1481 1482 1482 1483 1484 1485 1486 1487 1488 1489 1490 1490 1491 1492 1493 1493 1494 1495 1496
1465 1469 1473 1473 1475 1470 1461 1458 1458 1461 1462 1461 1461 1463 1466 1468 1468 1471 1472 1474 1475 1476 1477 1478 1478 1478 1479 1480 1481 1482 1483 1484 1485 1486 1486 1487 1488 1489 1489 1490 1491 1491 1492 1493
1464 1466 1470 1471 1476 1477 1466 1459 1458 1461 1466 1462 1462 1463 1465 1467 1471 1472 1472 1473 1474 1475 1475 1476 1476 1476 1477 1477 1478 1479 1480 1481 1482 1483 1484 1485 1485 1486 1487 1487 1488 1489 1490 1490
1468 1468 1470 1472 1473 1468 1463 1461 1460 1471 1471 1464 1463 1465 1466 1467 1470 1471 1471 1472 1472 1473 1474 1474 1474 1474 1475 1475 1476 1476 1478 1478 1479 1481 1481 1482 1483 1484 1484 1485 1486 1486 1487 1488
1468 1470 1470 1469 1474 1473 1463 1463 1466 1467 1465 1465 1466 1466 1467 1468 1469 1469 1470 1470 1471 1471 1471 1472 1472 1472 1473 1473 1473 1474 1475 1476 1477 1478 1478 1479 1480 1481 1482 1482 1483 1484 1484 1485
1464 1466 1466 1467 1469 1465 1464 1465 1466 1466 1466 1466 1467 1467 1468 1468 1468 1468 1469 1469 1469 1469 1469 1470 1470 1470 1470 1471 1471 1472 1472 1473 1474 1475 1476 1476 1477 1478 1479 1479 1480 1481 1481 1482
1462 1462 1463 1464 1463 1464 1465 1465 1466 1467 1467 1467 1467 1467 1467 1467 1467 1467 1467 1467 1467 1467 1467 1467 1467 1467 1467 1468 1469 1469 1470 1470 1471 1471 1472 1474 1474 1475 1476 1476 1477 1477 1478 1478
1465 1463 1464 1464 1464 1464 1464 1466 1466 1467 1467 1467 1467 1467 1467 1466 1466 1466 1466 1466 1465 1465 1465 1464 1464 1464 1465 1465 1466 1466 1467 1467 1467 1468 1469 1470 1471 1472 1472 1473 1473 1473 1474 1474
1464 1465 1465 1465 1464 1464 1464 1465 1465 1466 1466 1466 1466 1465 1465 1465 1465 1465 1464 1464 1463 1462 1462 1462 1461 1461 1462 1462 1462 1463 1464 1464 1464 1465 1466 1466 1467 1468 1469 1469 1470 1470 1471 1471